Regional Weather Roundup
Issued by NWS

Home | Current Version | Previous Version | Graphics & Text | Print | Product List | Glossary On
Versions: 1 2 3 4 5 6 7 8 9 10 11 12 13 14 15 16 17 18 19 20 21 22 23 24 25 26 27 28 29 30 31 32 33 34 35 36 37 38 39 40 41 42 43 44 45 46 47 48 49 50
000
ASUS45 KABQ 041510
RWRNM
NEW MEXICO REGIONAL WEATHER ROUNDUP
NATIONAL WEATHER SERVICE ALBUQUERQUE NM
900 AM MDT TUE AUG 04 2015

NOTE: "FAIR" MEANS FEW OR NO CLOUDS BELOW 12,000 FEET AGL WITH NO
       SIGNIFICANT WEATHER OR OBSTRUCTIONS TO VISION.

      THIS PRODUCT IS RELEASED AS TWO VERSIONS.  ONE VERSION NEAR
      THE TOP OF THE HOUR CONTAINING PRELIMINARY DATA FROM ALBUQUERQUE
      AND OTHER STATIONS.  A FINAL VERSION WITH ADDITIONAL DATA IS
      ISSUED ABOUT 10 MINUTES AFTER THE HOUR.

NMZ501-503-504-510>518-041600-
NORTHWEST PLATEAU/NORTHCENTRAL MOUNTAINS

CITY           SKY/WX    TMP DP  RH WIND       PRES   REMARKS
FARMINGTON     SUNNY     69  47  45 SE6       30.22R
LOS ALAMOS     PTSUNNY   65  51  59 CALM      30.34R
SANTA FE       SUNNY     69  49  48 CALM      30.27R
TAOS           SUNNY     63  43  48 CALM      30.34R
ANGEL FIRE     FAIR      56  49  79 CALM      30.40S

$$
NMZ402-403-502-505>509-041600-
WESTCENTRAL MOUNTAINS/SOUTHWEST MOUNTAINS

CITY           SKY/WX    TMP DP  RH WIND       PRES   REMARKS
GALLUP         SUNNY     66  50  56 CALM      30.30R
GRANTS         SUNNY     65  54  66 N3        30.32S
SILVER CITY      N/A     73  55  53 S3        30.23R

$$
NMZ407-409-411-412-041600-
SOUTHERN DESERTS

CITY           SKY/WX    TMP DP  RH WIND       PRES   REMARKS
LORDSBURG      FAIR      77  59  53 SE9       30.13S
DEMING         SUNNY     75  60  59 VRB3      30.14R
LAS CRUCES     MOSUNNY   74  62  65 CALM      30.16S
HOLLOMAN AFB   SUNNY     79  59  49 S3        30.12R
ALAMOGORDO     SUNNY     77  59  53 S5        30.14S
T OR C         SUNNY     78  51  38 NW9       30.15F

$$
NMZ519>523-041600-
CENTRAL VALLEYS/CENTRAL HIGHLANDS

CITY           SKY/WX    TMP DP  RH WIND       PRES   REMARKS
ALBUQUERQUE    MOSUNNY   74  47  38 CALM      30.23R
DOUBLE EAGLE   MOSUNNY   72  50  46 VRB6      30.27R
MORIARTY ARPT    N/A     67  53  60 CALM      30.29R
CLINES CORNERS NOT AVBL
BELEN          FAIR      73  51  45 CALM      30.22R
SOCORRO        FAIR      72  57  60 CALM      30.19R

$$
NMZ524>526-539-540-041600-
SOUTHCENTRAL MOUNTAINS

CITY           SKY/WX    TMP DP  RH WIND       PRES   REMARKS
RUIDOSO          N/A    N/A N/A N/A MISG        N/A

$$
NMZ527>531-041600-
NORTHEAST HIGHLANDS/NORTHEAST PLAINS

CITY           SKY/WX    TMP DP  RH WIND       PRES   REMARKS
RATON          SUNNY     64  57  78 E8        30.22S
CLAYTON        SUNNY     73  58  59 W12       30.09F

$$
NMZ532>537-041600-
EASTCENTRAL PLAINS

CITY           SKY/WX    TMP DP  RH WIND       PRES   REMARKS
TUCUMCARI      SUNNY     72  62  71 NW3       30.07S
CANNON AFB     SUNNY     72  63  73 W6        30.09S
CLOVIS AIRPORT SUNNY     73  61  64 SW7       30.10R

$$
NMZ028-029-538-041600-
SOUTHEAST PLAINS

CITY           SKY/WX    TMP DP  RH WIND       PRES   REMARKS
ROSWELL        SUNNY     76  62  62 N7        30.07S
ARTESIA        SUNNY     75  68  78 CALM      30.08S
CARLSBAD       SUNNY     80  64  58 S6        30.03S
HOBBS          SUNNY     79  66  65 S8        30.07S


$$



USA.gov is the U.S. government's official web portal to all federal, state and local government web resources and services.